Regional Weather Roundup
Issued by NWS

Home | Current Version | Previous Version | Graphics & Text | Print | Product List | Glossary On
Versions: 1 2 3 4 5 6 7 8 9 10 11 12 13 14 15 16 17 18 19 20 21 22 23 24 25 26 27 28 29 30 31 32 33 34 35 36 37 38 39 40 41 42 43 44 45 46 47 48 49 50
322
ASUS43 KMKX 250121
RWRWI

WISCONSIN REGIONAL WEATHER ROUNDUP
NATIONAL WEATHER SERVICE MILWAUKEE/SULLIVAN WI
800 PM CDT SUN JUL 24 2016

NOTE: "FAIR" INDICATES FEW OR NO CLOUDS BELOW 12,000 FEET WITH NO
SIGNIFICANT WEATHER AND/OR OBSTRUCTIONS TO VISIBILITY.

WIZ001-002-006>008-014>016-023>028-250200-
NORTHWEST WISCONSIN

CITY           SKY/WX    TMP DP  RH WIND       PRES   REMARKS
SUPERIOR ARPT  CLOUDY    76  64  66 W5        29.85R
ASHLAND        CLEAR     77  62  59 W8        29.86R
HAYWARD        PTCLDY    76  62  62 VRB6      29.90R
SIREN          CLEAR     79  59  50 W7        29.91  HX  80
CUMBERLAND     PTCLDY    73  61  64 W9        29.92S
RICE LAKE      PTCLDY    76  62  62 W8        29.92S
CHETEK         PTCLDY    76  64  67 MISG      29.91S
LADYSMITH      PTCLDY    76  63  63 W7        29.92S
EAU CLAIRE     CLOUDY    78  64  61 NW7       29.89S HX  80
MENOMONIE      CLOUDY    81  63  54 W10       29.90S HX  82
NEW RICHMOND   PTCLDY    77  60  55 W9        29.93S
OSCEOLA        CLEAR     78  62  58 W8        29.95S
$$

WIZ003>005-009-010-017-018-250200-
NORTH CENTRAL WISCONSIN

CITY           SKY/WX    TMP DP  RH WIND       PRES   REMARKS
MANITOWISH WTR PTCLDY    73  62  68 W6        29.89R
ARBOR VITAE    PTCLDY    77  65  65 W8        29.89R
WOODRUFF       PTCLDY    77  65  65 W8        29.89R
RHINELANDER    CLEAR     75  63  66 W7        29.89R
EAGLE RIVER    CLEAR     74  59  59 W7        29.88R
LAND O LAKES   CLEAR     75  60  60 W7        29.89R
PHILLIPS       CLEAR     73  64  72 W3        29.90R
TOMAHAWK       PTCLDY    74  62  67 W6        29.90R
MEDFORD        CLEAR     73  63  70 NW6       29.90S
MERRILL        PTCLDY    77  65  67 NW8       29.88S
$$

WIZ029-030-035-036-043>047-250200-
CENTRAL WISCONSIN

CITY           SKY/WX    TMP DP  RH WIND       PRES   REMARKS
WAUSAU         CLEAR     78  63  59 W13       29.86S HX  80
MOSINEE        CLEAR     77  64  65 W10       29.89S
MARSHFIELD     CLEAR     77  63  61 NW9       29.89S
STEVENS POINT  PTCLDY    77  63  61 W6        29.88S
WAUPACA        CLEAR     83  65  54 W9        29.85S HX  85
WAUTOMA        PTCLDY    81  68  64 W8        29.86F HX  84
WISC RAPIDS    CLEAR     78  63  59 NW8       29.88F HX  80
CAMP DOUGLAS   PTCLDY    75  67  76 NW7       29.88F
$$

WIZ011>013-019>022-031-037>040-048>050-250200-
NORTHEAST WISCONSIN

CITY           SKY/WX    TMP DP  RH WIND       PRES   REMARKS
ANTIGO         CLEAR     75  64  68 W9        29.88S
SHAWANO        MOCLDY    82  66  58 W7        29.84S HX  84
OCONTO         PTCLDY    81  70  70 W7        29.80S HX  84
STURGEON BAY   PTCLDY    81  72  74 W10       29.81R HX  85
GREEN BAY      PTCLDY    79  69  71 W8        29.82R HX  81
MANITOWOC      CLOUDY    83  70  64 W12       29.82R HX  87
APPLETON       PTCLDY    79  64  61 W6        29.84S HX  81
CLINTONVILLE   PTCLDY    81  64  57 W6        29.84S HX  82
OSHKOSH        PTCLDY    81  67  62 W8        29.85R HX  83
$$

WIZ032>034-041-042-053>061-250200-
SOUTHWEST WISCONSIN

CITY           SKY/WX    TMP DP  RH WIND       PRES   REMARKS
LA CROSSE      MOCLDY    81  66  60 NW13      29.89S HX  83
SPARTA         CLOUDY    78  65  64 NW3       29.89F HX  80
VIROQUA        MOCLDY    76  65  68 NW5       29.91F
BOSCOBEL       MOCLDY    80  68  66 SW3       29.89F HX  83
PRAIRIE DU CHI PTCLDY    79  64  60 W5        29.89F HX  81
PLATTEVILLE    CLOUDY    77  69  78 W5        29.93R
$$

WIZ056-057-062-063-064-067-068-250200-
SOUTH CENTRAL WISCONSIN

CITY           SKY/WX    TMP DP  RH WIND       PRES   REMARKS
REEDSBURG      CLEAR     78  67  68 W7        29.89S HX  81
BARABOO/DELLS  CLEAR     78  65  64 W7        29.89S HX  80
LONE ROCK      PTCLDY    79  68  69 W5        29.89F HX  81
MINERAL POINT  PTCLDY    77  70  78 SW5       29.93R
MADISON        MOCLDY    82  66  58 VRB5      29.89R HX  84
MIDDLETON      CLEAR     81  67  63 W6        29.91R HX  83
WATERTOWN      MOCLDY    84  73  69 NW12      29.88R HX  90
MONROE         CLEAR     81  68  65 NW8       29.92R HX  83
JANESVILLE     MOCLDY    88  75  66 NW13      29.88R HX  97
$$

WIZ051-052-058>065-066-070>072-250200-
SOUTHEAST WISCONSIN

CITY           SKY/WX    TMP DP  RH WIND       PRES   REMARKS
MILWAUKEE      CLOUDY    91  76  61 W16G25    29.84R HX 103
WAUKESHA       PTCLDY    82  73  74 W12       29.87R HX  88
MILWAUKEE/TIMM CLEAR     88  70  55 W13       29.85R HX  92
RACINE         CLOUDY    85  79  82 W3        29.85R HX  98
BURLINGTON     PTCLDY    86  78  76 W7        29.86S HX  97
KENOSHA        CLOUDY    87  78  74 W14       29.86R HX 100
FOND DU LAC    PTCLDY    82  68  62 W7        29.86R HX  85
SHEBOYGAN      PTCLDY    83  74  74 NW6       29.83R HX  89
WEST BEND      PTCLDY    84  72  65 W14       29.86R HX  89
JUNEAU         PTCLDY    82  68  63 W7        29.89R HX  84
$$

LSZ147-162-250200-
LAKE SUPERIOR

STATION/POSITION TIME  TEMP    WIND        PRES    WAVE
                       AIR SEA DIR/SP/G            HT/PER
                 (UTC) (F)     (DEG/KT/KT) (MB)    (FT/S)
W MID LAKE BUOY  0050   65 58  240/ 12/ 12 1008.2R   2/ 5
DEVILS ISLAND    0100   69     240/ 17/ 18 1009.4R
SAXON HARBOR     0040   80     260/  4/  8 1010.2S
$$

LMZ867-665-643>646-250200-
LAKE MICHIGAN

STATION/POSITION TIME  TEMP    WIND        PRES    WAVE
                       AIR SEA DIR/SP/G            HT/PER
                 (UTC) (F)     (DEG/KT/KT) (MB)    (FT/S)
CHAMBERS ISLAND  0000   81     180/  3/  6 1008.1R
S GREEN BAY BUOY 0000   79 75  250/  8/ 10   N/A
N MID LAKE BUOY  0050   69 68  210/ 12/ 14 1007.5R   4/ 7
NORTHPORT PIER   0000   80     170/  3/  6 1008.1R
KEWAUNEE LAKESHO 0000   81                   N/A
SHEBOYGAN LAKESH 0100   85     290/  8/ 10 1009.9R
PORT WASHINGTON  0000   91     290/  6/ 15 1009.8S
MILWAUKEE LAKESH 0010   89     280/  9/ 16   N/A
S MID LAKE BUOY  0050   76 72  180/ 10/ 12 1009.4R   2/ 4
KENOSHA   LAKESH 0100   90     250/ 11/ 16 1009.8S
$$

TC  - TEMPERATURE IN CELSIUS
VSB - VISIBILITY IN STATUTE MILES
WCI - WIND CHILL INDEX
HX  - HEAT INDEX





USA.gov is the U.S. government's official web portal to all federal, state and local government web resources and services.